Content
SEND FEEDBACK

Daily
Averages
Monthly
Summary
Switzerland

ZERMATT, SWITZERLAND


Home > Europe > Switzerland
Elevation: 5282 feet     Latitude: 46 01N     Longitude: 007 45E

WEATHER
 
SELECT A DAY
Number of Records: 132,782;   Date Range: 7/1/96 - 7/11/14
 
SHARE

PRINT THIS DATA

[ ← Previous Day ]
WEATHER ALMANAC - JULY 18, 2013
[ Next Day → ]
[ °C ]   °F
Weather ElementAverageHighLow
Temperature35.3 °F37.4 °F (3:55 pm)30.2 °F (11:55 pm)
Dewpoint30.1 °F33.8 °F (5:55 pm)26 °F (5:00 am)
Humidity80.3 %87 % (7:55 am)58 % (5:00 am)
Barometer30.51 in30.54 in (1:55 am)30.48 in (10:36 am)
Wind Speed10.9 mph23 mph (12:55 pm)
Weather ElementAverage
Visibility1.4 mi
Wind DirectionESE (115.3 °)

Weather ElementTotal
Precipitation---
Heating Degree Days31.2 (Base 65)
Averaged from 31 records on July 18, 2013
WEATHER CONDITIONS BREAKOUT
WIND DIRECTION BREAKOUT
WEATHER BY HOUR - JULY 18, 2013
[ °C ]   °F
Local TimeTemperatureDewpointHumidityBarometerVisibilityWind DirectionWind SpeedGust SpeedPrecipitationEventsConditions
1:55 AM35.6 °F30.2 °F81 %30.54 inSouth (170°)4.6 mphClear
2:00 AM35.0 °F29.0 °F73 %7.0 miSouth (170°)4.6 mphPartly Cloudy
2:55 AM35.6 °F26.6 °F70 %30.54 inSSE (150°)15.0 mphClear
3:55 AM35.6 °F28.4 °F75 %30.51 inESE (120°)12.7 mphClear
4:55 AM33.8 °F26.6 °F75 %30.51 inESE (110°)11.5 mphClear
5:00 AM35.0 °F26.0 °F58 %7.0 miESE (110°)11.5 mph
5:55 AM33.8 °F26.6 °F75 %30.51 in6.2 miEast (80°)4.6 mphScattered Clouds
6:55 AM33.8 °F28.4 °F81 %30.51 in6.2 miNE (50°)8.1 mphPartly Cloudy
7:55 AM33.8 °F30.2 °F87 %30.51 in1.2 miVariable2.3 mphScattered Clouds
8:00 AM33.0 °F30.0 °F85 %1.0 mi°2.3 mphMist
8:55 AM33.8 °F30.2 °F87 %30.51 in0.1 miSW (220°)4.6 mphFog-SnowLight Snow
9:55 AM33.8 °F30.2 °F87 %30.51 in0.1 miVariable1.2 mphFog-SnowSnow
10:36 AM35.6 °F32.0 °F87 %30.48 in0.1 miEast (100°)16.1 mphFog-Snow-ThunderstormLight Thunderstorms and Snow
10:55 AM35.6 °F32.0 °F87 %30.48 in0.1 miESE (110°)13.8 mphFog-Snow-ThunderstormLight Thunderstorms and Snow
11:00 AM35.0 °F31.0 °F81 %0.0 miESE (110°)13.8 mphRain-ThunderstormThunderstorms and Rain
11:55 AM35.6 °F32.0 °F87 %30.48 in0.1 miSE (130°)10.4 mphFog-Snow-ThunderstormLight Thunderstorms and Snow
12:55 PM35.6 °F30.2 °F81 %30.48 in0.1 miEast (100°)23.0 mphFog-SnowLight Snow
1:55 PM35.6 °F30.2 °F81 %30.51 in0.1 miEast (100°)10.4 mphFog-SnowLight Snow
2:00 PM36.0 °F30.0 °F73 %0.0 miEast (100°)10.4 mphSnowLight Snow
2:55 PM35.6 °F32.0 °F87 %30.51 in0.1 miEast (100°)11.5 mphFog-SnowLight Snow
3:55 PM37.4 °F32.0 °F81 %30.51 in0.2 miESE (120°)20.7 mphFog-SnowLight Snow
4:55 PM37.4 °F32.0 °F81 %30.51 in0.1 miSE (140°)15.0 mphFogFog
5:00 PM37.0 °F31.0 °F73 %0.0 miSE (140°)15.0 mphFogHeavy Fog
5:55 PM37.4 °F33.8 °F87 %30.51 in0.3 miSE (140°)4.6 mphFogFog
6:55 PM37.4 °F33.8 °F87 %30.51 in0.5 miESE (110°)11.5 mphFogFog
7:55 PM37.4 °F32.0 °F81 %30.51 in0.5 miESE (110°)15.0 mphFogFog
8:00 PM37.0 °F31.0 °F73 %0.0 miESE (110°)15.0 mphFogHeavy Fog
8:55 PM35.6 °F30.2 °F81 %30.51 in6.2 miESE (120°)13.8 mphScattered Clouds
9:55 PM35.6 °F30.2 °F81 %30.51 in0.5 miSE (140°)12.7 mphFogFog
10:55 PM35.6 °F30.2 °F81 %30.54 in0.5 miSSE (150°)10.4 mphFogFog
11:55 PM30.2 °F26.6 °F86 %30.54 in0.5 miSSE (150°)11.5 mphFogFog
Hourly data recorded from LIMH, located miles away from Zermatt, Switzerland







STORIES FROM OUR PARTNERS